This is the latest recevied weather packets stored in our database for station/object VA3XLT-1. If no packets are shown the sender has not sent any weather packets the latest 10 day(s).
| Time | Temp. | Humidity | Pressure | Rain* | Wind** | Luminosity | Snow |
|---|---|---|---|---|---|---|---|
| 1777662168 | 11.67° C | 60% | 1013 hPa | 0 mm | - | - | - |
| 1777661868 | 11.67° C | 59% | 1012.8 hPa | 0 mm | - | - | - |
| 1777661568 | 12.22° C | 62% | 1012.8 hPa | 0 mm | - | - | - |
| 1777661268 | 12.22° C | 59% | 1012.8 hPa | 0 mm | - | - | - |
| 1777660968 | 12.22° C | 60% | 1012.8 hPa | 0 mm | - | - | - |
| 1777660668 | 11.67° C | 61% | 1012.8 hPa | 0 mm | - | - | - |
| 1777660368 | 11.67° C | 57% | 1012.8 hPa | 0 mm | - | - | - |
| 1777660068 | 12.22° C | 64% | 1012.6 hPa | 0 mm | - | - | - |
| 1777659768 | 11.67° C | 62% | 1012.6 hPa | 0 mm | - | - | - |
| 1777659468 | 11.67° C | 65% | 1012.6 hPa | 0 mm | - | - | - |
| 1777659168 | 11.11° C | 68% | 1012.6 hPa | 0 mm | - | - | - |
| 1777658868 | 10.56° C | 74% | 1012.7 hPa | 0 mm | - | - | - |
| 1777658568 | 10° C | 74% | 1012.7 hPa | 0 mm | - | - | - |
| 1777658268 | 10° C | 72% | 1012.7 hPa | 0 mm | - | - | - |
| 1777657969 | 10° C | 73% | 1012.7 hPa | 0 mm | - | - | - |
| 1777657668 | 10° C | 70% | 1012.8 hPa | 0 mm | - | - | - |
| 1777657368 | 10° C | 71% | 1012.9 hPa | 0 mm | - | - | - |
| 1777657068 | 10° C | 75% | 1012.9 hPa | 0 mm | - | - | - |
| 1777656768 | 10° C | 72% | 1012.7 hPa | 0 mm | - | - | - |
| 1777656468 | 10.56° C | 75% | 1012.8 hPa | 0 mm | - | - | - |
| 1777656168 | 10.56° C | 68% | 1012.8 hPa | 0 mm | - | - | - |
| 1777655868 | 10.56° C | 72% | 1012.9 hPa | 0 mm | - | - | - |
| 1777655568 | 10.56° C | 68% | 1012.8 hPa | 0 mm | - | - | - |
| 1777655268 | 11.11° C | 67% | 1012.9 hPa | 0 mm | - | - | - |
| 1777654968 | 11.67° C | 64% | 1012.9 hPa | 0 mm | - | - | - |
* Rain latest hour (hover to see other rain measurements)
** Current wind speed in m/s (hover to see current wind gust speed)